Terminal Aerodrome Forecast
Issued by NWS Binghamton, NY

Home | Current Version | Previous Version | Text Only | Print | Product List | Glossary On
Versions: 1 2 3 4 5 6 7 8 9 10 11 12 13 14 15 16 17 18 19 20 21
000
FTUS41 KBGM 221700
TAFBGM
TAF
KBGM 221720Z 2218/2318 30013G21KT P6SM OVC025
     FM221900 30014G22KT P6SM SCT025 BKN035
      TEMPO 2219/2222 BKN025 BKN035
     FM230300 30005KT P6SM SCT035
     FM230800 27004KT P6SM BKN020
     FM231300 30007KT P6SM BKN035=

USA.gov is the U.S. government's official web portal to all federal, state and local government web resources and services.